Regional Weather Roundup
Issued by NWS Goodland, KS

Home | Current Version | Previous Version | Graphics & Text | Print | Product List | Glossary On
Versions: 1 2 3 4 5 6 7 8 9 10 11 12 13 14 15 16 17 18 19 20 21 22 23 24 25 26 27 28 29 30 31 32 33 34 35 36 37 38 39 40 41 42 43 44 45 46 47 48 49 50
000
ASUS43 KGLD 272308
RWRGLD

GOODLAND FORECAST AREA HOURLY WEATHER ROUNDUP
NATIONAL WEATHER SERVICE GOODLAND KS
400 PM MST FRI FEB 27 2015

...OFFICIAL OBSERVATIONS...

CITY           SKY/WX    TMP DP  RH WIND       PRES   REMARKS
GOODLAND KS    LGT SNOW  15   9  76 S22       30.15F WCI  -3
HILL CITY KS   PTSUNNY   19   4  51 S12       30.35F WCI   7
IMPERIAL NEB     N/A     19   6  57 S18G25    30.17F WCI   4
MCCOOK NEB     CLOUDY    23   6  48 S16       30.27F WCI  10
AKRON CO       LGT SNOW  14   8  77 SE20G28   30.00F WCI  -3
BURLINGTON CO  LGT SNOW  13   6  74 S22       30.09F WCI  -6
LIMON CO       LGT SNOW   9   5  84 SE20      29.95S FOG     WCI -10
$$

...UNOFFICIAL OBSERVATIONS...

CITY           SKY/WX    TMP DP  RH WIND       PRES   REMARKS
COLBY KS       FLURRIES  18  12  79 SE16      30.23F WCI   3
GOVE KS          N/A     17  32 100 MISG        N/A
LENORA KS        N/A     17  32 100 S17         N/A  WCI   1
NORTON KS      CLOUDY    19   0  42 SE13G18   30.31S WCI   7
SHARON SPRINGS   N/A     14   9  81 S21         N/A  WCI  -4
KIT CARSON CO    N/A     11   7  83 MISG        N/A
YUMA CO          N/A     16   7  66 SE13G20     N/A  WCI   2
$$


USA.gov is the U.S. government's official web portal to all federal, state and local government web resources and services.